Tracking 29932 objects as of 3-Dec-2024
HD Live streaming from Space Station
objects crossing your sky now

IRIDIUM 33 DEB

Track IRIDIUM 33 DEB now!
10-day predictions


NORAD ID: 38241
Int'l Code: 1997-051ZR
Perigee: 727.5 km
Apogee: 730.1 km
Inclination: 86.3 °
Period: 99.2 minutes
Semi major axis: 7099 km
RCS: 0.0216 m2 (small)
Launch date: September 14, 1997
Source: United States (US)
Launch site: TYURATAM MISSILE AND SPACE COMPLEX (TTMTR)

Note: This is SATELLITE DEBRIS
Your satellite tracking list
Your tracking list is empty




NASA's NSSDC Master Catalog

Two Line Element Set (TLE):
1 38241U 97051ZR  24337.24484789  .00008109  00000-0  20358-2 0  9993
2 38241  86.3235 155.7718 0001813 215.7241 144.3843 14.51221129547478
Source of the keplerian elements: AFSPC